Station PSBM1 - 8410140 - Eastport, ME Image indicating link to RSS feed of recent meteorological observations for station PSBM1


Conditions at PSBM1 as of
(7:18 am EDT)
1118 GMT on 07/20/2024:
     

Click on the graph icon in the table below to see a time series plot of the last five days of that observation.

5-day plot - Wind Direction Wind Direction (WDIR): S ( 170 deg true )
5-day plot - Wind Speed Wind Speed (WSPD): 5.1 kts
5-day plot - Wind Gust Wind Gust (GST): 6.0 kts
5-day plot - Atmospheric Pressure Atmospheric Pressure (PRES):30.01 in
5-day plot - Air Temperature Air Temperature (ATMP): 60.4 °F
5-day plot - Water Temperature Water Temperature (WTMP): 54.0 °F
5-day plot - Wind Speed at 10 Meters Wind Speed at 10 meters (WSPD10M): 5.8 kts
5-day plot - Wind Speed at 20 Meters Wind Speed at 20 meters (WSPD20M): 5.8 kts
5-day plot -  Wind Speed, Wind Gust and Atmospheric Pressure Combined plot of Wind Speed, Gust, and Air Pressure
NOS Water Level Observation Network Water Level
Previous observations
TIME
(EDT)
5-day plot - Wind Direction
WDIR
 
5-day plot - Wind Speed
WSPD
kts
5-day plot - Wind Gust
GST
kts
5-day plot - Wave Height
WVHT
ft
5-day plot - Dominant Wave Period
DPD
sec
5-day plot - Average Wave Period
APD
sec
5-day plot - Mean Wave Direction
MWD
 
5-day plot - Atmospheric Pressure
PRES
in
5-day plot - Pressure Tendency
PTDY
in
5-day plot - Air Temperature
ATMP
°F
5-day plot - Water Temperature
WTMP
°F
5-day plot - Dew Point
DEWP
°F
5-day plot - Salinity
SAL
psu
5-day plot - Visibility
VIS
nmi
5-day plot - Tide (above MLLW)
TIDE
ft
2024-07-20 07:12 am S 5.1 7.0----30.00- 59.9 54.0----
2024-07-20 07:06 am S 5.1 6.0----30.00- 59.2 53.8----
2024-07-20 07:00 am-------30.01+0.02 58.6 53.8----
2024-07-20 06:54 am-------30.00- 57.0 53.8----
2024-07-20 06:48 amSSE 2.9 4.1----30.00-- 53.6----
2024-07-20 06:42 am SE 4.1 5.1----30.00-- 53.6----
2024-07-20 06:36 amSSE 2.9 4.1----30.00-- 53.6----
2024-07-20 06:30 am-------30.00- 57.9 53.6----
2024-07-20 06:24 am-------30.00- 58.6 53.4----
2024-07-20 06:18 amSSE 4.1 4.1----29.99- 57.7 53.4----
2024-07-20 06:12 am S 4.1 4.1----29.99- 57.6 53.4----
2024-07-20 06:06 amSSE 2.9 4.1----29.99- 58.3 53.2----
2024-07-20 06:00 am S 2.9 4.1----29.99+0.01 58.1 53.2----
2024-07-20 05:54 amSSE 2.9 2.9----29.99- 56.3 53.2----
2024-07-20 05:48 amSSE 2.9 4.1----30.00- 57.6 53.2----
2024-07-20 05:42 am S 2.9 4.1----30.00- 57.7 53.2----
2024-07-20 05:36 am S 1.9 5.1----30.00- 57.2 53.2----
2024-07-20 05:30 am S 5.1 5.1----30.00- 56.8 53.1----
2024-07-20 05:24 amSSE 2.9 4.1----30.00- 57.2 53.1----
2024-07-20 05:18 amSSE 2.9 4.1----30.00- 57.2 52.9----
2024-07-20 05:12 amSSE 2.9 2.9----29.99- 58.1 52.7----
2024-07-20 05:06 am S 1.9 5.1----29.99- 58.5 52.7----
2024-07-20 05:00 amSSE 5.1 5.1----29.99+0.01 57.6 52.7----
2024-07-20 04:54 amSSE 2.9 4.1----29.99- 57.7 52.7----
2024-07-20 04:48 amSSE 4.1 5.1----29.99-- 52.7----
2024-07-20 04:42 am S 2.9 4.1----29.99-- 52.7----
2024-07-20 04:36 amSSE 2.9 4.1----29.99-- 52.5----
2024-07-20 04:30 am S 4.1 5.1----29.99- 57.7 52.5----
2024-07-20 04:24 am S 4.1 5.1----29.99- 57.0 52.5----
2024-07-20 04:18 amSSE 2.9 2.9----29.98-- 52.5----
2024-07-20 04:12 amSSE 2.9 4.1----29.98-- 52.5----
2024-07-20 04:06 amSSE 4.1 5.1----29.99-- 52.3----
2024-07-20 04:00 amSSE 2.9 4.1----29.99+0.00 56.8 52.3----
2024-07-20 03:54 am S 1.9 4.1----29.98- 57.2 52.3----
2024-07-20 03:48 amSSE 4.1 5.1----29.98-- 52.3----
2024-07-20 03:42 amSSE 2.9 4.1----29.98-- 52.3----
2024-07-20 03:36 am SE 2.9 2.9----29.98-- 52.3----
2024-07-20 03:30 am S 1.0 2.9----29.98- 56.3 52.3----
2024-07-20 03:24 am S 1.9 4.1----29.98- 56.5 52.3----
2024-07-20 03:18 am-------29.98- 57.0 52.3----
2024-07-20 03:12 am-------29.98- 56.5 52.3----
2024-07-20 03:06 am-------29.98- 56.7 52.3----
2024-07-20 03:00 amSSE 5.1 5.1----29.98+0.00 57.4 52.3----
2024-07-20 02:54 amSSW 1.0 2.9----29.98- 60.8 52.3----
2024-07-20 02:48 am-------29.98- 60.1 52.3----
2024-07-20 02:42 am-------29.98- 60.1 52.3----
2024-07-20 02:36 am-------29.98- 59.0 52.3----
2024-07-20 02:30 am S 4.1 4.1----29.98- 58.5 52.3----
2024-07-20 02:24 amSSE 1.9 2.9----29.98- 57.4 52.3----
2024-07-20 02:18 am S 1.0 1.9----29.98- 57.9 52.3----
2024-07-20 02:12 am- 0.0 1.0----29.98- 56.5 52.3----
2024-07-20 02:06 am S 1.0 1.9----29.98- 55.9 52.3----
2024-07-20 02:00 am S 1.9 4.1----29.98+0.00 55.8 52.3----
2024-07-20 01:54 am SE 2.9 4.1----29.98- 56.1 52.3----
2024-07-20 01:48 amSSE 1.9 1.9----29.98- 57.7 52.3----
2024-07-20 01:42 am- 0.0 4.1----29.98- 58.1 52.3----
2024-07-20 01:36 amNNW 1.9 2.9----29.98- 59.2 52.3----
2024-07-20 01:30 am- 0.0 4.1----29.98- 61.7 52.3----
2024-07-20 01:24 am S 2.9 4.1----29.98- 60.1 52.3----
2024-07-20 01:18 am S 2.9 4.1----29.98- 59.2 52.3----
2024-07-20 01:12 am S 4.1 5.1----29.98- 57.9 52.3----
2024-07-20 01:06 am S 4.1 5.1----29.98- 57.9 52.3----
2024-07-20 01:00 am- 0.0 1.9----29.98+0.00 59.2 52.3----
2024-07-20 12:54 am W 1.9 4.1----29.98- 62.1 52.3----
2024-07-20 12:48 amSSW 1.9 4.1----29.98-- 52.3----
2024-07-20 12:42 am S 2.9 4.1----29.98-- 52.3----
2024-07-20 12:36 amSSW 1.9 2.9----29.98-- 52.3----
2024-07-20 12:30 am SW 1.9 2.9----29.98- 62.8 52.3----
2024-07-20 12:24 amSSW 1.9 2.9----29.98- 61.0 52.3----
2024-07-20 12:18 am S 1.9 2.9----29.98- 58.6 52.3----
2024-07-20 12:12 am S 1.9 2.9----29.98- 58.3 52.3----
2024-07-20 12:06 amSSW 1.9 2.9----29.98- 61.3 52.3----
2024-07-20 12:00 am S 1.9 2.9----29.98+0.00 57.2 52.2----
2024-07-19 11:54 pm S 1.9 2.9----29.98- 59.0 52.2----
2024-07-19 11:48 pmSSW 1.9 2.9----29.98- 58.1 52.2----
2024-07-19 11:42 pm S 1.9 2.9----29.98- 57.4 52.2----
2024-07-19 11:36 pm S 1.9 2.9----29.98- 57.7 52.2----
2024-07-19 11:30 pmSSW 1.0 2.9----29.98- 61.5 52.0----
2024-07-19 11:24 pmSSW 1.9 4.1----29.98- 59.7 52.0----
2024-07-19 11:18 pm S 4.1 4.1----29.98- 57.7 52.0----
2024-07-19 11:12 pm S 4.1 4.1----29.98- 58.6 51.8----
2024-07-19 11:06 pm S 2.9 2.9----29.98- 59.2 51.8----
2024-07-19 11:00 pm S 2.9 4.1----29.98+0.01 57.7 51.8----
2024-07-19 10:54 pm S 4.1 4.1----29.98- 56.7 51.6----
2024-07-19 10:48 pm S 2.9 2.9----29.98-- 51.6----
2024-07-19 10:42 pmSSW 1.9 2.9----29.98-- 51.6----
2024-07-19 10:36 pm S 2.9 4.1----29.98-- 51.6----
2024-07-19 10:30 pm S 2.9 4.1----29.98- 56.8 51.6----
2024-07-19 10:24 pm S 4.1 5.1----29.98- 56.3 51.6----
2024-07-19 10:18 pm S 4.1 4.1----29.98- 56.5 51.6----
2024-07-19 10:12 pm S 2.9 2.9----29.98- 57.6 51.6----
2024-07-19 10:06 pm S 2.9 4.1----29.98- 57.0 51.8----
2024-07-19 10:00 pm S 4.1 4.1----29.98+0.03 57.6 51.8----
2024-07-19 09:54 pm S 4.1 4.1----29.98- 58.1 51.8----
2024-07-19 09:48 pm S 4.1 5.1----29.98- 58.3 51.8----
2024-07-19 09:42 pm S 4.1 6.0----29.98- 58.5 51.8----
2024-07-19 09:36 pm S 6.0 8.0----29.98- 58.8 51.8----
2024-07-19 09:30 pm S 5.1 8.0----29.98- 59.0 51.8----
2024-07-19 09:24 pm S 6.0 7.0----29.98- 59.5 51.8----
2024-07-19 09:18 pm S 6.0 8.0----29.98- 60.1 52.0----
2024-07-19 09:12 pm S 6.0 7.0----29.98- 60.6 52.0----
2024-07-19 09:06 pm S 5.1 6.0----29.98- 61.5 52.2----
2024-07-19 09:00 pm S 5.1 6.0----29.98+0.04 62.1 52.3----
2024-07-19 08:54 pm S 5.1 6.0----29.98- 61.7 52.5----
2024-07-19 08:48 pm S 4.1 6.0----29.98- 61.7 52.5----
2024-07-19 08:42 pm S 5.1 6.0----29.97- 61.7 52.7----
2024-07-19 08:36 pm S 4.1 5.1----29.97- 61.9 52.9----
2024-07-19 08:30 pm S 5.1 7.0----29.97- 61.7 53.2----
2024-07-19 08:24 pm S 5.1 6.0----29.97- 61.5 53.2----
2024-07-19 08:18 pm S 5.1 6.0----29.96-- 53.4----
2024-07-19 08:12 pm S 5.1 7.0----29.96-- 53.6----
2024-07-19 08:06 pm S 5.1 7.0----29.96-- 53.6----
2024-07-19 08:00 pm S 5.1 7.0----29.96+0.04 63.1 53.8----
2024-07-19 07:54 pm S 6.0 7.0----29.96- 63.0 53.8----
2024-07-19 07:48 pm S 5.1 7.0----29.96- 62.8 53.8----
2024-07-19 07:42 pm S 6.0 8.0----29.96- 61.9 53.8----
2024-07-19 07:36 pm S 5.1 7.0----29.96- 61.7 54.0----
2024-07-19 07:30 pm S 5.1 8.0----29.96- 62.2 54.0----
2024-07-19 07:24 pm S 6.0 7.0----29.96- 62.4 54.0----
2024-07-19 07:00 pm S 8.0 9.9----29.96+0.03- 54.1----
2024-07-19 06:54 pm S 8.0 9.9----29.95-- 54.3----
2024-07-19 06:48 pm S 8.0 9.9----29.95- 66.4 54.3----
2024-07-19 06:42 pm S 8.9 9.9----29.95- 66.7 54.3----
2024-07-19 06:36 pm S 8.0 9.9----29.95- 67.6 54.3----
2024-07-19 06:30 pm S 8.0 8.9----29.95-- 54.3----
2024-07-19 06:24 pm S 8.0 8.9----29.95-- 54.3----
2024-07-19 06:18 pm S 8.0 9.9----29.94-- 54.1----
2024-07-19 06:12 pm S 6.0 8.9----29.94-- 54.3----
2024-07-19 06:06 pm S 8.0 9.9----29.94-- 54.1----
2024-07-19 06:00 pm S 7.0 9.9----29.94+0.01 68.4 54.1----
2024-07-19 05:54 pm S 8.0 12.0----29.94- 68.0 54.1----
2024-07-19 05:48 pm S 9.9 11.1----29.94- 67.8 54.0----
2024-07-19 05:42 pm S 8.0 11.1----29.93- 69.4 54.0----
2024-07-19 05:36 pm S 8.9 12.0----29.93- 68.9 54.0----
2024-07-19 05:30 pm S 8.0 9.9----29.93- 68.9 54.0----
2024-07-19 05:24 pm S 8.9 12.0----29.93- 69.4 53.8----
2024-07-19 05:18 pm S 8.9 11.1----29.93- 67.6 53.6----
2024-07-19 05:12 pm S 8.0 12.0----29.93- 65.8 53.4----
2024-07-19 05:06 pm S 8.9 12.0----29.93- 65.8 53.4----
2024-07-19 05:00 pm S 11.1 12.0----29.93+0.00 65.1 53.4----
2024-07-19 04:54 pm S 9.9 12.0----29.93- 65.7 53.4----
2024-07-19 04:48 pm S 11.1 13.0----29.93-- 53.4----
2024-07-19 04:42 pm S 12.0 13.0----29.93-- 53.6----
2024-07-19 04:36 pm S 11.1 14.0----29.93-- 53.6----
2024-07-19 04:30 pm S 9.9 12.0----29.93- 66.7 53.6----
2024-07-19 04:24 pm S 8.0 8.9----29.93- 67.1 53.6----
2024-07-19 04:18 pm S 7.0 8.9----29.93- 68.0 53.6----
2024-07-19 04:12 pmSSE 6.0 9.9----29.93- 67.6 53.6----
2024-07-19 04:06 pmSSE 8.9 11.1----29.93- 67.3 52.5----
2024-07-19 04:00 pm S 7.0 8.9----29.93+0.00 67.3 52.3----
2024-07-19 03:54 pm S 9.9 12.0----29.93- 67.3 52.3----
2024-07-19 03:48 pmSSE 8.0 12.0----29.93- 66.0 52.3----
2024-07-19 03:42 pmSSE 11.1 12.0----29.93- 66.0 52.2----
2024-07-19 03:36 pmSSE 9.9 11.1----29.93- 65.5 52.2----
2024-07-19 03:30 pm S 9.9 12.0----29.93- 66.2 52.2----
2024-07-19 03:24 pmSSE 11.1 13.0----29.93- 66.4 52.2----
2024-07-19 03:18 pm S 8.9 11.1----29.93- 66.6 52.2----
2024-07-19 03:12 pm S 8.9 11.1----29.93- 65.8 52.0----
2024-07-19 03:06 pm S 8.9 13.0----29.93- 65.5 52.2----
2024-07-19 03:00 pm S 8.9 11.1----29.93-0.01 65.7 52.0----
2024-07-19 02:54 pm S 8.9 11.1----29.93- 65.8 52.0----
2024-07-19 02:48 pmSSE 8.9 11.1----29.93- 64.0 52.0----
2024-07-19 02:42 pmSSE 11.1 12.0----29.93- 64.6 52.2----
2024-07-19 02:36 pmSSE 9.9 12.0----29.93- 64.9 52.0----
2024-07-19 02:30 pm S 8.0 8.9----29.93- 65.5 51.8----
2024-07-19 02:24 pmSSE 7.0 8.9----29.93- 63.3 51.8----
2024-07-19 02:18 pm S 7.0 8.0----29.93- 65.3 51.6----
2024-07-19 02:12 pm S 7.0 8.0----29.92- 65.8 51.6----
2024-07-19 02:06 pm S 7.0 7.0----29.92- 65.7 51.6----
2024-07-19 02:00 pmSSE 6.0 8.0----29.92-0.01 65.7 51.8----
2024-07-19 01:54 pmSSE 6.0 8.9----29.92- 65.3 51.8----
2024-07-19 01:48 pmSSE 7.0 8.9----29.92- 66.6 51.8----
2024-07-19 01:42 pmSSE 8.0 9.9----29.92- 64.2 52.0----
2024-07-19 01:36 pmSSE 7.0 8.0----29.93- 64.9 52.2----
2024-07-19 01:30 pmSSE 7.0 8.0----29.93- 65.1 52.0----
2024-07-19 01:24 pmSSE 6.0 8.0----29.92- 63.1 52.0----
2024-07-19 01:18 pmSSE 7.0 8.0----29.92- 63.5 52.2----
2024-07-19 01:12 pmSSE 6.0 8.9----29.93- 64.0 52.2----
2024-07-19 01:06 pmSSE 7.0 11.1----29.93- 64.9 52.2----
2024-07-19 01:00 pmSSE 8.0 8.9----29.93-0.01 63.5 52.2----
2024-07-19 12:54 pmSSE 8.0 8.9----29.93- 63.9 52.2----
2024-07-19 12:48 pmSSE 8.9 11.1----29.93- 63.9 52.2----
2024-07-19 12:42 pm S 8.9 11.1----29.93- 64.9 52.3----
2024-07-19 12:36 pm S 8.9 11.1----29.93- 65.1 52.3----
2024-07-19 12:30 pm S 8.9 11.1----29.93- 64.0 52.3----
2024-07-19 12:24 pmSSE 9.9 11.1----29.93- 64.4 52.2----
2024-07-19 12:18 pmSSE 11.1 12.0----29.93- 64.0 52.2----
2024-07-19 12:12 pm S 8.9 11.1----29.93- 63.5 52.5----
2024-07-19 12:06 pm S 9.9 11.1----29.93- 63.5 52.5----
2024-07-19 12:00 pm S 11.1 11.1----29.93+0.01 63.0 52.5----
2024-07-19 11:54 am S 11.1 12.0----29.93- 63.0 52.5----
2024-07-19 11:48 am S 9.9 12.0----29.93- 62.8 52.5----
2024-07-19 11:42 am S 11.1 11.1----29.93- 62.4 52.5----
2024-07-19 11:36 am S 9.9 11.1----29.93- 62.2 52.2----
2024-07-19 11:30 am S 8.9 9.9----29.93- 62.6 52.0----
2024-07-19 11:24 amSSE 7.0 8.0----29.93- 64.4 51.6----
2024-07-19 11:18 amSSE 6.0 7.0----29.93- 64.0 51.6----
2024-07-19 11:12 am S 5.1 7.0----29.93- 64.8 51.6----
2024-07-19 11:06 amSSE 5.1 6.0----29.93- 65.8 51.4----
2024-07-19 11:00 amSSE 5.1 6.0----29.93+0.02 65.3 51.3----
2024-07-19 10:54 amSSE 4.1 6.0----29.93- 65.1 50.7----
2024-07-19 10:48 amSSE 2.9 5.1----29.93- 66.4 50.5----
2024-07-19 10:42 am S 1.9 5.1----29.93- 70.0 50.5----
2024-07-19 10:36 amSSE 1.9 6.0----29.93- 68.2 50.7----
2024-07-19 10:30 am S 4.1 5.1----29.93- 64.4 50.9----
2024-07-19 10:24 amSSE 4.1 5.1----29.93- 64.4 50.9----
2024-07-19 10:18 am SE 4.1 4.1----29.93- 65.1 50.9----
2024-07-19 10:12 am SE 2.9 2.9----29.93- 66.4 51.1----
2024-07-19 10:06 amSSE 4.1 4.1----29.93- 65.3 51.1----
2024-07-19 10:00 am S 2.9 4.1----29.93+0.04 64.9 51.3----
2024-07-19 09:54 amESE 2.9 2.9----29.93- 66.4 51.3----
2024-07-19 09:48 am E 1.9 1.9----29.93- 67.1 51.3----
2024-07-19 09:42 am SE 1.0 1.9----29.93- 66.2 51.3----
2024-07-19 09:36 amSSE 1.9 1.9----29.93- 66.0 51.4----
2024-07-19 09:30 am SE 1.9 1.9----29.93- 64.8 51.4----
2024-07-19 09:24 amSSE 1.9 2.9----29.93- 64.0 51.4----
2024-07-19 09:18 amSSE 1.9 2.9----29.93- 63.7 51.6----
2024-07-19 09:12 am E 1.9 2.9----29.93- 64.2 52.0----
2024-07-19 09:06 amESE 1.9 1.9----29.93- 64.4 52.2----
2024-07-19 09:00 amSSE 1.9 2.9----29.93+0.06 62.6 52.2----
2024-07-19 08:54 am- 0.0 4.1----29.92- 61.9 52.3----
2024-07-19 08:48 amESE 2.9 2.9----29.92- 61.5 52.3----
2024-07-19 08:42 am SE 1.9 2.9----29.92- 61.7 52.5----
2024-07-19 08:36 amSSE 1.9 4.1----29.92- 62.1 52.5----
2024-07-19 08:30 am- 0.0 2.9----29.92- 62.2 52.7----
2024-07-19 08:24 am E 2.9 2.9----29.92- 61.3 52.9----
2024-07-19 08:18 am NE 1.9 2.9----29.92- 64.6 52.9----
2024-07-19 08:12 am NE 1.9 1.9----29.91- 66.2 53.2----
2024-07-19 08:06 am W 1.0 4.1----29.91- 67.8 53.4----
2024-07-19 08:00 am- 0.0 4.1----29.91+0.06 67.5 53.6----
2024-07-19 07:54 amWSW 1.9 4.1----29.91- 67.3 53.6----